This is the latest recevied weather packets stored in our database for station/object KI6SYE. If no packets are shown the sender has not sent any weather packets the latest 10 day(s).
| Time | Temp. | Humidity | Pressure | Rain* | Wind** | Luminosity | Snow |
|---|---|---|---|---|---|---|---|
| 1777847287 | 17.22° C | 75% | 1013.5 hPa | 0 mm | - | 275 W/m² | - |
| 1777846985 | 17.22° C | 75% | 1013.6 hPa | 0 mm | - | 288 W/m² | - |
| 1777846683 | 17.78° C | 74% | 1013.5 hPa | 0 mm | - | 294 W/m² | - |
| 1777846380 | 17.22° C | 73% | 1013.6 hPa | 0 mm | - | 306 W/m² | - |
| 1777846077 | 17.78° C | 74% | 1013.5 hPa | 0 mm | - | 316 W/m² | - |
| 1777845774 | 17.78° C | 74% | 1013.6 hPa | 0 mm | - | 326 W/m² | - |
| 1777845471 | 17.78° C | 73% | 1013.6 hPa | 0 mm | - | 322 W/m² | - |
| 1777845168 | 17.22° C | 73% | 1013.8 hPa | 0 mm | - | 324 W/m² | - |
| 1777844866 | 17.78° C | 71% | 1013.8 hPa | 0 mm | - | 353 W/m² | - |
| 1777844562 | 17.78° C | 71% | 1013.8 hPa | 0 mm | - | 354 W/m² | - |
| 1777844261 | 17.78° C | 70% | 1013.8 hPa | 0 mm | - | 361 W/m² | - |
| 1777843958 | 17.78° C | 69% | 1013.9 hPa | 0 mm | - | 362 W/m² | - |
| 1777843654 | 17.78° C | 69% | 1013.8 hPa | 0 mm | - | 363 W/m² | - |
| 1777843352 | 17.78° C | 69% | 1013.9 hPa | 0 mm | - | 333 W/m² | - |
| 1777843050 | 17.78° C | 68% | 1013.9 hPa | 0 mm | - | 387 W/m² | - |
| 1777842745 | 17.78° C | 69% | 1013.8 hPa | 0 mm | - | 395 W/m² | - |
| 1777842441 | 17.78° C | 69% | 1014 hPa | 0 mm | - | 368 W/m² | - |
| 1777842139 | 17.78° C | 68% | 1013.7 hPa | 0 mm | - | 364 W/m² | - |
| 1777841834 | 17.78° C | 70% | 1013.8 hPa | 0 mm | - | 494 W/m² | - |
| 1777841531 | 17.78° C | 73% | 1014 hPa | 0 mm | - | 463 W/m² | - |
| 1777841227 | 17.78° C | 73% | 1014 hPa | 0 mm | - | 395 W/m² | - |
| 1777840925 | 18.33° C | 71% | 1014 hPa | 0 mm | - | 395 W/m² | - |
| 1777840622 | 17.78° C | 72% | 1014 hPa | 0 mm | - | 418 W/m² | - |
| 1777840319 | 17.78° C | 70% | 1014.2 hPa | 0 mm | - | 497 W/m² | - |
| 1777840016 | 18.33° C | 70% | 1014 hPa | 0 mm | - | 463 W/m² | - |
* Rain latest hour (hover to see other rain measurements)
** Current wind speed in m/s (hover to see current wind gust speed)